Location: Stull Observatory
(42.2506°N, 77.7903°W)
Time: 03:00:58
(UTC-05:00)

Daily predictions for brighter satellites

Satellite Brightness Start Highest point End
(mag) Time Altitude Azimuth Time Altitude Azimuth Time Altitude Azimuth
Cosmos 2297 Rocket 4.4 03:51:31 21° ENE 03:51:31 21° ENE 03:54:00 10° NE
Cosmos 2227 Rocket 4.2 04:05:01 22° NE 04:05:01 22° NE 04:07:03 10° NE
Cosmos 2333 Rocket 4.4 04:39:22 14° S 04:39:22 14° S 04:40:12 10° SSE
SeaSat 1 4.5 04:41:09 10° NNE 04:42:30 19° NNE 04:42:30 19° NNE
Cosmos 1864 Rocket 4.5 04:41:46 10° S 04:47:51 75° E 04:54:01 10° N
Cosmos 1725 Rocket 4.0 04:41:38 10° S 04:47:51 77° E 04:54:10 10° N
USA 229 DEB 3.7 04:50:54 62° NNW 04:52:16 82° NE 04:59:30 10° SE
USA 229 3.8 04:50:57 61° NNW 04:52:21 81° NE 04:59:36 10° SE
Cosmos 304 Rocket 4.3 05:04:56 52° NE 05:05:34 57° ENE 05:10:15 10° SSE
OAO 2 Rocket 4.3 05:09:34 35° S 05:09:34 35° S 05:13:50 10° ESE
ISS -1.3 05:16:07 28° E 05:16:07 28° E 05:17:52 10° ESE
Cosmos 540 Rocket 4.3 05:17:13 36° SSW 05:17:13 36° SSW 05:20:22 10° S
Cosmos 783 Rocket 4.4 05:16:31 74° WSW 05:16:31 74° WSW 05:21:35 10° SSE
Cosmos 2237 Rocket 3.6 05:22:48 24° SSW 05:22:48 24° SSW 05:25:16 10° S
SL-16 R/B 2.0 05:22:48 49° NW 05:24:23 79° WSW 05:30:02 10° SSE
Aureole 2 Rocket 4.0 05:26:05 33° S 05:26:05 33° S 05:28:31 10° S
SL-8 R/B 4.2 05:25:58 44° N 05:26:31 46° NNE 05:31:09 10° E
Cosmos 1743 Rocket 4.0 05:27:58 48° SSW 05:27:58 48° SSW 05:31:13 10° S
Feng Yun 1-1 Rocket 4.4 05:26:29 10° N 05:31:23 48° WNW 05:31:23 48° WNW
Cosmos 2297 Rocket 2.5 05:33:23 44° NW 05:33:23 44° NW 05:38:31 10° NNE
Cosmos 1842 Rocket 3.3 05:32:50 10° SSW 05:37:09 75° W 05:41:32 10° N
Cosmos 2233 Rocket 3.9 05:30:57 10° SSW 05:37:10 73° W 05:43:29 10° N
COSMO-SKYMED 1 2.4 05:34:09 10° S 05:38:28 70° WSW 05:39:28 50° NW
USA 234 3.8 05:32:26 10° ESE 05:38:43 51° NNE 05:42:59 21° NW
Cosmos 2151 3.0 05:39:27 17° N 05:42:44 80° E 05:46:58 10° S
Meteor 1-11 4.4 05:37:05 10° N 05:42:55 76° E 05:48:44 10° SSE
ERBS 2.7 05:44:40 50° N 05:45:08 55° NE 05:48:29 10° ESE
Cosmos 1538 Rocket 4.0 05:41:35 18° NNW 05:45:38 89° SW 05:50:59 10° SSE
Cosmos 2227 Rocket 3.2 05:46:54 27° NW 05:46:54 27° NW 05:50:46 10° N
NOSS 3-1 (C) 4.1 05:41:10 18° NNW 05:47:08 81° NE 05:55:29 10° SE
Meteor 1-4 Rocket 3.2 05:48:27 40° NNW 05:48:27 40° NNW 05:51:06 10° N
Cosmos 1340 Rocket 3.2 05:44:22 12° N 05:47:56 63° ENE 05:51:51 10° SSE
Meteor 1-16 Rocket 4.0 05:44:05 10° S 05:49:32 87° W 05:54:54 10° N
Cosmos 1271 Rocket 2.7 05:47:30 10° S 05:51:20 77° E 05:55:08 10° NNE
Cosmos 1500 Rocket 3.7 05:52:32 35° NW 05:53:58 48° W 05:58:14 10° SSW
Meteor 1-28 Rocket 3.0 05:50:14 10° S 05:53:59 71° W 05:55:51 28° NNW
Ariane Rocket 2.9 05:51:52 10° NNE 05:57:00 88° WNW 06:02:07 10° SSW
SL-14 R/B 3.2 05:55:40 20° NNW 05:58:22 65° W 06:02:22 10° S
Cosmos 220 Rocket 4.4 06:01:45 25° WSW 06:03:50 40° WNW 06:08:00 10° N
Cosmos 1626 3.2 06:03:25 10° N 06:07:02 45° ENE 06:10:38 10° SSE
Cosmos 1943 4.4 06:01:49 10° NNW 06:07:14 42° ENE 06:12:36 10° SE
Sich 1 4.1 06:07:18 10° N 06:11:32 46° ENE 06:15:41 10° SSE
SMAP 4.3 06:07:40 10° NNE 06:12:08 44° E 06:16:35 10° S
Meteor 2-1 Rocket 4.2 06:07:56 10° S 06:13:33 85° WNW 06:19:19 10° N
Cosmos 1633 Rocket 4.3 06:09:33 10° N 06:13:43 42° ENE 06:17:50 10° SSE
CZ-2C R/B 3.0 06:10:53 10° NNE 06:15:24 55° E 06:19:53 10° S
ATLAS CENTAUR R/B 4.3 06:14:16 10° NNW 06:17:19 17° NNE 06:22:40 10° ENE
Cosmos 389 Rocket 4.3 06:16:17 10° SSE 06:19:39 36° E 06:23:03 10° NNE
CZ-4 R/B 1.7 06:16:35 10° NNE 06:20:38 69° ESE 06:24:43 10° S
SeaSat 1 4.3 06:20:43 10° NNW 06:22:18 12° NW 06:22:18 12° NW
PAYLOAD A 3.9 06:18:25 10° N 06:23:30 82° WNW 06:28:21 10° SSW
CSL-04 Debris 4.1 06:18:04 10° N 06:23:34 74° WNW 06:29:00 10° SSW
Tiangong 2 4.0 06:22:35 10° S 06:24:37 16° SSE 06:26:38 10° ESE
Cosmos 1464 Rocket 4.0 06:21:20 10° SSW 06:27:37 65° W 06:33:53 10° N
Cosmos 1603 3.7 06:22:44 10° NNW 06:28:19 65° WSW 06:33:54 10° S
Cosmos 968 Rocket 4.2 06:24:13 10° SW 06:28:54 32° WNW 06:33:37 10° N
YAOGAN 1 3.1 06:28:00 10° NNE 06:32:18 62° E 06:36:35 10° S
Cosmos 2263 Rocket 3.5 06:29:13 10° S 06:34:35 46° ESE 06:40:00 10° NE
Cosmos 2112 Rocket 4.2 06:31:18 10° NNW 06:36:39 78° ENE 06:41:59 10° SSE
Cosmos 1908 3.6 06:34:15 10° S 06:38:03 68° E 06:41:52 10° NNE
Cosmos 773 Rocket 4.3 06:33:31 10° NNW 06:38:33 45° WSW 06:43:34 10° S
Coronas F rocket 1.3 06:37:19 10° N 06:39:42 66° E 06:42:06 10° SSE
Cosmos 1666 Rocket 3.5 06:40:24 10° NNW 06:44:51 70° W 06:49:17 10° S
MSX 4.3 06:39:09 10° NNE 06:44:54 68° ESE 06:50:39 10° S
Cosmos 2221 3.2 06:45:50 10° SW 06:49:43 31° WNW 06:53:36 10° NNW
ISS -1.4 06:48:48 11° W 06:50:50 17° SW 06:53:01 10° S
CSL-04 Rocket 4.2 06:47:48 10° N 06:52:36 35° WNW 06:57:20 10° SW
Cosmos 1933 Rocket 4.3 06:52:03 10° N 06:56:28 57° E 07:00:49 10° SSE
Cosmos 2058 4.3 06:53:36 10° NW 06:56:34 19° W 06:59:32 10° SW
NOSS 3-1 (A) 4.3 06:49:26 10° NW 06:56:54 55° WSW 07:05:01 10° SSE
Genesis I 4.2 06:53:58 10° NW 06:57:25 30° WSW 07:00:52 10° S
APEX 4.3 06:53:31 10° S 06:57:26 47° ESE 07:00:35 10° NE
Cosmos 1184 Rocket 3.4 06:56:11 10° NNW 06:59:17 37° W 07:02:22 10° SSW
SPOT 3 Rocket 3.5 06:55:22 10° N 07:00:35 78° WNW 07:05:48 10° SSW
Cosmos 1300 4.3 07:00:31 10° SSE 07:04:06 40° E 07:07:42 10° NNE
ATLAS 2AS CENTAUR R/B 3.5 06:57:56 10° NNW 07:06:01 64° NE 07:13:32 10° SE
